Weather in Bobrovka

Russia / Kursk Oblast     52°12′33″N   36°26′21″E
temp.,
°C
wind,
m/s
gust,
m/s
humid.,
%
clouds,
%
prec.,
mm/h
press.,
hPa
HPBL,
m
31 july, sat
sat3100:00+18wnw34850 0.0 100871
03:00+17wnw34830 0.0 100966
06:00+17w35830 0.0 100993
09:00+23wsw3457100 0.0 1010325
12:00+27wsw58415 0.0 10102230
15:00+28wsw59392 0.0 10092636
18:00+28wnw464632 0.0 1009986
21:00+21nnw236439 0.0 101123
1 august, sun
sun100:00+20nnw016421 0.0 101211
03:00+19s226414 0.0 101211
06:00+19sse34695 0.0 101352
09:00+26ssw455249 0.0 1012425
12:00+30sw46375 0.0 10122631
15:00+32wsw573119 0.0 10112812
18:00+30wsw24411 0.0 10101320
21:00+26e224345 0.0 101012
2 august, mon
mon200:00+24se465056 0.0 101070
03:00+21sw235419 0.0 101027
06:00+22s3652100 0.0 1010112
09:00+27ssw574551 0.0 1009394
12:00+32ssw7933100 0.0 10082291
15:00+32wsw793299 0.0 10072408
18:00+19ese5785100 6.9 1007133
21:00+19s4108194 7.1 1006146
3 august, tue
tue300:00+18wsw81792100 1.1 1007579
03:00+18sw5129346 5.1 1006515
06:00+17sw599653 0.0 1008392
09:00+18w5887100 0.0 1009659
12:00+19wnw6876100 0.3 1010716
15:00+22wnw685697 0.4 10111622
18:00+22wnw57567 0.0 10121601
21:00+17wnw35733 0.0 101469
4 august, wed
wed400:00+16wnw227938 0.0 101524
03:00+15wsw22832 0.0 101621
06:00+14w24870 0.0 101681
09:00+20w34661 0.0 1017600
12:00+23w44451 0.0 10172042
15:00+24w4438100 0.0 10172267
18:00+23nw345199 0.0 1017441
21:00+18n226475 0.0 101711